[[{"header":{"parameterUnit":"m.s-1","parameterCategory":1,"la1":30.2991,"la2":30.254,"lo1":-89.0895,"lo2":-89.0444,"dy":0.0017,"dx":0.0017,"nx":28,"ny":28,"refTime":"2024-08-08T09:00:00:Z","depth":0,"parameterNumber":2,"parameterNumberName":"U-component_of_WINDS"},"data":[0,0,0,0,0,0,0,0,0,0,0,0,0,0,0,0,0,0,0,0,0,0,0,0,0,0,0,0,0,0,0,0,0,0,0,0,0,0,0,0,0,0,0,0,0,0,0,0,0,0,0,0,0,0,0,0,0,0,2.2257,2.2257,0,2.2255,2.2255,2.2255,2.2158,2.2156,2.2153,2.2151,2.2149,2.2151,2.2154,0,0,0,0,0,0,0,0,0,0,0,0,0,2.2176,2.2178,2.2257,2.2257,2.2257,2.2255,2.2255,2.2255,2.2159,2.2155,2.2152,2.215,2.2148,2.2151,2.2154,0,0,0,0,0,0,0,0,0,0,0,0,0,2.2197,2.2179,2.2257,2.2209,2.2204,2.2255,2.2255,2.2255,2.2159,2.2155,2.2152,2.2148,2.2148,2.2151,2.2154,2.2252,0,0,2.2165,2.2167,0,0,0,0,0,0,0,0,2.2196,2.22,2.2216,2.2212,2.2207,2.2203,2.2226,2.2254,2.216,2.2176,2.2151,2.2146,2.217,2.2172,2.218,2.2252,2.2252,2.2165,2.2167,2.2169,2.217,0,0,0,0,0,0,0,2.2194,2.2199,2.2256,2.2216,2.2211,2.2187,2.2185,2.2231,2.2195,2.2175,2.2168,2.2169,2.2167,2.2177,2.2179,2.2252,2.2165,2.2168,2.217,2.2172,2.2403,2.2407,0,0,0,0,0,0,2.22,2.2199,2.2256,2.2256,2.2192,2.2191,2.219,2.2208,2.2194,2.2188,2.2172,2.2164,2.2172,2.2175,2.2179,2.229,2.2169,2.2172,2.2174,2.2399,2.2404,2.2408,0,0,0,0,0,0,2.2198,2.2206,2.2256,2.2226,2.223,2.2197,2.2218,2.221,2.2219,2.2192,2.2185,2.2188,2.217,2.2174,2.2234,2.2289,2.2174,2.2177,2.2394,2.24,2.2406,2.2516,0,0,0,0,0,0,2.2196,2.2206,2.2242,2.2227,2.2232,2.2312,2.2222,2.2213,2.2226,2.2215,2.2205,2.22,2.2167,2.2229,2.2238,2.2291,2.218,2.2389,2.2397,2.2404,2.2507,2.2525,2.254,0,0,0,0,0,2.2194,2.2274,2.2245,2.2252,2.2277,2.2316,2.2319,2.2279,2.2231,2.2267,2.2249,2.22,2.2282,2.2236,2.2245,2.2301,2.2385,2.2395,2.2403,2.2499,2.2521,2.2539,0,0,0,0,0,0,2.2296,2.2271,2.2238,2.2316,2.2319,2.2299,2.2344,2.2303,2.232,2.231,2.226,2.2259,2.2327,2.232,2.227,2.2394,2.2325,2.2336,2.2395,2.2416,2.2432,2.2431,2.2183,0,0,0,0,0,2.2328,2.2361,2.2337,2.2408,2.2411,2.2378,2.2393,2.2362,2.2363,2.2364,2.235,2.2353,2.2379,2.2397,2.242,2.2506,2.2502,2.2549,2.2565,2.2579,2.2589,2.2632,2.2652,2.2438,2.2438,2.2438,0,0,2.2393,2.2384,2.2408,2.2428,2.2427,2.2462,2.2379,2.242,2.2445,2.237,2.2425,2.2416,2.2416,2.249,2.2521,2.2486,2.2647,2.2591,2.2602,2.2604,2.2644,2.2664,2.2682,2.2444,2.2443,2.2442,0,0,2.253,2.2527,2.2584,2.2585,2.2584,2.2561,2.2575,2.2562,2.2553,2.2608,2.2552,2.2582,2.2628,2.263,2.2637,2.2776,2.273,2.2785,2.287,2.2913,2.293,2.2944,2.2992,2.301,2.2795,2.2795,2.2795,0,2.2611,2.2662,2.2619,2.2664,2.2674,2.2608,2.2665,2.2668,2.2675,2.2683,2.2644,2.27,2.2696,2.2768,2.2802,2.281,2.2824,2.2784,2.2931,2.2945,2.2958,2.3003,2.3021,2.2801,2.2801,2.28,2.2799,0,2.2761,2.2797,2.2844,2.2851,2.2867,2.2918,2.2883,2.2904,2.2873,2.2855,2.2912,2.2904,2.2923,2.2939,2.2909,2.3007,2.2985,2.294,2.2869,2.2986,2.3027,2.3044,2.2811,2.2808,2.2806,2.2805,0,0,2.296,2.2944,2.2961,2.2964,2.2958,2.2985,2.3033,2.3052,2.307,2.3078,2.3116,2.3157,2.3115,2.3123,2.3093,2.3131,2.3239,2.3081,2.308,2.3108,2.3345,2.3377,2.3398,2.3211,2.3214,2.3216,2.3344,0,2.309,2.317,2.3134,2.3218,2.325,2.3188,2.323,2.3231,2.3216,2.3241,2.3224,2.3253,2.3196,2.32,2.3236,2.3219,2.3286,2.3209,2.3244,2.3246,2.3243,2.3419,2.3454,2.3575,2.336,2.3363,2.3365,0,2.3252,2.3266,2.3353,2.3341,2.3353,2.3391,2.3405,2.3431,2.3431,2.3417,2.3426,2.3387,2.3433,2.3366,2.3428,2.3377,2.3389,2.3383,2.3387,2.3386,2.3311,2.3421,2.3612,2.363,2.339,2.3388,2.3386,0,2.3386,2.3426,2.3483,2.3488,2.3476,2.3503,2.35,2.3496,2.351,2.3523,2.3531,2.3549,2.3559,2.3574,2.3541,2.3495,2.3607,2.3537,2.3596,2.3597,2.362,2.3618,2.3813,2.3633,2.3633,2.3632,2.3632,0,2.3533,2.3589,2.3543,2.3578,2.3638,2.3596,2.3656,2.3646,2.3644,2.3675,2.3624,2.3655,2.3611,2.3637,2.3612,2.3666,2.3672,2.3661,2.3653,2.3664,2.3665,2.367,2.3659,2.3637,2.3636,2.3635,2.3634,0,2.3691,2.3663,2.3721,2.3705,2.3702,2.3747,2.3733,2.3765,2.3747,2.3787,2.3794,2.3765,2.3794,2.3763,2.379,2.3773,2.3845,2.3827,2.3845,2.3839,2.3898,2.3892,2.41,2.4125,2.3932,2.3934,2.3935,0,2.3786,2.3827,2.3815,2.3833,2.3832,2.3861,2.3875,2.3836,2.3852,2.3855,2.3886,2.391,2.3927,2.3976,2.3957,2.3977,2.3957,2.4029,2.3959,2.3969,2.3955,2.3952,2.3955,2.4042,2.4044,2.4046,2.4047,0,2.3956,2.394,2.3961,2.3978,2.3996,2.4007,2.4015,2.4032,2.3991,2.4012,2.404,2.4054,2.4081,2.4105,2.412,2.4116,2.4075,2.407,2.4084,2.4094,2.4102,2.4096,2.3881,2.4065,2.4063,2.4062,2.4061,2.406,2.4083,2.4116,2.4113,2.4138,2.414,2.4148,2.4177,2.4162,2.4185,2.4203,2.418,2.4214,2.4213,2.4229,2.423,2.4256,2.4226,2.4247,2.4252,2.4257,2.4265,2.4101,2.4259,2.4259,2.4258,2.4258,2.4258,0,2.4248,2.4244,2.4268,2.4279,2.4299,2.426,2.4267,2.4286,2.4317,2.432,2.4337,2.437,2.4393,2.4377,2.4397,2.4421,2.4403,2.4428,2.4424,2.4423,2.4292,2.4277,2.4442,2.4442,2.4442,2.4442,2.4442,2.4442,2.4336,2.4389,2.4374,2.4427,2.4422,2.4455,2.4462,2.4469,2.4471,2.4509,2.4528,2.4518,2.4513,2.4532,2.4552,2.4546,2.4555,2.4586,2.4574,2.4451,2.4433,2.4415,2.44,2.4589,2.4589,2.4702,2.4703,2.4704]},{"header":{"parameterUnit":"m.s-1","parameterCategory":1,"la1":30.2991,"la2":30.254,"lo1":-89.0895,"lo2":-89.0444,"dy":0.0017,"dx":0.0017,"nx":28,"ny":28,"refTime":"2024-08-08T09:00:00:Z","depth":0,"parameterNumber":3,"parameterNumberName":"V-component_of_WINDS"},"data":[0,0,0,0,0,0,0,0,0,0,0,0,0,0,0,0,0,0,0,0,0,0,0,0,0,0,0,0,0,0,0,0,0,0,0,0,0,0,0,0,0,0,0,0,0,0,0,0,0,0,0,0,0,0,0,0,0,0,2.287,2.2872,0,2.302,2.3022,2.3023,2.3028,2.3026,2.3024,2.3022,2.3171,2.3176,2.3182,0,0,0,0,0,0,0,0,0,0,0,0,0,2.2581,2.2586,2.287,2.2872,2.2874,2.302,2.3022,2.3024,2.3028,2.3026,2.3024,2.3022,2.3169,2.3175,2.3182,0,0,0,0,0,0,0,0,0,0,0,0,0,2.2716,2.2588,2.287,2.2894,2.2897,2.3019,2.3022,2.3024,2.3028,2.3026,2.3023,2.302,2.3167,2.3175,2.3183,2.329,0,0,2.3209,2.3213,0,0,0,0,0,0,0,0,2.2708,2.2726,2.2888,2.2892,2.2897,2.3002,2.2974,2.3113,2.3029,2.2979,2.3022,2.3019,2.3117,2.3129,2.3163,2.3297,2.3303,2.321,2.3215,2.3218,2.3221,0,0,0,0,0,0,0,2.2699,2.272,2.2929,2.2891,2.2896,2.2894,2.2911,2.3,2.3061,2.2983,2.2983,2.3001,2.3118,2.3155,2.3166,2.3305,2.3209,2.3217,2.3222,2.3226,2.3529,2.3532,0,0,0,0,0,0,2.2686,2.2712,2.2924,2.2934,2.2794,2.2902,2.292,2.2971,2.306,2.3071,2.3004,2.3001,2.3142,2.3156,2.3172,2.3299,2.3218,2.3226,2.3231,2.3526,2.353,2.3533,0,0,0,0,0,0,2.2679,2.2704,2.2918,2.2823,2.285,2.291,2.2967,2.2975,2.3012,2.3076,2.3086,2.303,2.314,2.316,2.326,2.3305,2.323,2.3238,2.3523,2.3527,2.3531,2.3558,0,0,0,0,0,0,2.2671,2.2702,2.2745,2.2824,2.2855,2.3006,2.297,2.298,2.3027,2.3025,2.3103,2.3114,2.3139,2.3247,2.3268,2.3315,2.3244,2.3519,2.3525,2.353,2.3553,2.3562,2.3571,0,0,0,0,0,2.2661,2.2747,2.2748,2.2773,2.2911,2.3009,2.3027,2.3056,2.3031,2.3073,2.3113,2.3111,2.3296,2.3257,2.3281,2.3331,2.3516,2.3523,2.353,2.3549,2.3561,2.357,0,0,0,0,0,0,2.2671,2.2757,2.276,2.2874,2.2934,2.301,2.3064,2.3068,2.3136,2.3131,2.3163,2.318,2.3279,2.3315,2.327,2.3437,2.3403,2.3415,2.341,2.3421,2.343,2.3418,2.3251,0,0,0,0,0,2.2686,2.2761,2.2832,2.2926,2.2956,2.3005,2.3049,2.3066,2.3129,2.3154,2.3202,2.3261,2.3332,2.3379,2.3448,2.3558,2.3573,2.3604,2.3613,2.362,2.3629,2.3686,2.37,2.3555,2.3555,2.3555,0,0,2.2719,2.2776,2.2821,2.2929,2.2978,2.3051,2.3026,2.3106,2.316,2.3166,2.3263,2.33,2.3368,2.3472,2.3521,2.3505,2.3672,2.3628,2.3633,2.3639,2.3694,2.3708,2.372,2.356,2.3559,2.3558,0,0,2.2816,2.2868,2.295,2.2999,2.3074,2.3105,2.3124,2.3199,2.3224,2.3322,2.3327,2.339,2.3513,2.3561,2.3601,2.3712,2.3711,2.3734,2.3779,2.3835,2.3846,2.3856,2.3893,2.3906,2.3743,2.3743,2.3743,0,2.2847,2.2961,2.2992,2.3072,2.3117,2.3126,2.3208,2.3253,2.3346,2.3376,2.3358,2.351,2.3557,2.3671,2.3698,2.3731,2.3752,2.3725,2.3842,2.3853,2.3863,2.3898,2.3912,2.3745,2.3745,2.3745,2.3745,0,2.2994,2.3072,2.3129,2.3219,2.3271,2.3351,2.3391,2.344,2.3452,2.3484,2.3582,2.3638,2.3717,2.3745,2.3758,2.386,2.3848,2.3836,2.3802,2.3878,2.3912,2.3926,2.3748,2.3748,2.3747,2.3746,0,0,2.3103,2.3207,2.3227,2.3266,2.3347,2.3407,2.3486,2.3564,2.3604,2.3667,2.3731,2.3834,2.3822,2.3867,2.3885,2.3933,2.4014,2.3915,2.3917,2.3929,2.4126,2.4134,2.415,2.4014,2.4017,2.4019,2.412,0,2.3207,2.335,2.3378,2.3501,2.3571,2.3579,2.3647,2.3702,2.3733,2.3796,2.3829,2.3901,2.3881,2.3908,2.3957,2.3994,2.4054,2.3987,2.4072,2.4074,2.4054,2.4168,2.4177,2.427,2.4134,2.4136,2.4138,0,2.3349,2.3415,2.3544,2.3613,2.3643,2.3705,2.3777,2.3838,2.3899,2.3918,2.3967,2.3978,2.4057,2.402,2.4127,2.4081,2.4117,2.414,2.4144,2.4152,2.411,2.4177,2.43,2.4314,2.4159,2.4157,2.4156,0,2.3412,2.3533,2.3626,2.3659,2.3743,2.3784,2.3821,2.3879,2.3924,2.3986,2.4014,2.4085,2.4123,2.4175,2.4204,2.4175,2.4307,2.4274,2.4323,2.4322,2.435,2.4348,2.4479,2.4376,2.4376,2.4375,2.4375,0,2.3525,2.3603,2.3655,2.3712,2.3798,2.3829,2.3913,2.3948,2.4,2.4061,2.4071,2.4128,2.4163,2.4224,2.4246,2.433,2.4347,2.4363,2.4367,2.4361,2.4359,2.4384,2.4378,2.4379,2.4378,2.4377,2.4377,0,2.3611,2.3649,2.375,2.3819,2.3838,2.3899,2.3957,2.4011,2.4041,2.4119,2.4138,2.4186,2.4257,2.4291,2.438,2.4395,2.4489,2.449,2.4468,2.447,2.4516,2.4511,2.4668,2.4689,2.4573,2.4574,2.4575,0,2.3679,2.374,2.3816,2.3858,2.3895,2.3964,2.4009,2.404,2.4085,2.4158,2.4202,2.4274,2.4334,2.4448,2.4489,2.4555,2.4557,2.4607,2.4567,2.4558,2.4555,2.4551,2.4556,2.4614,2.4616,2.4616,2.4617,0,2.3797,2.3812,2.3878,2.3949,2.4002,2.406,2.4116,2.4149,2.4188,2.4239,2.4313,2.4359,2.4449,2.452,2.4589,2.4623,2.4626,2.4629,2.4644,2.4638,2.4622,2.4629,2.4486,2.4626,2.4625,2.4624,2.4624,2.4623,2.3875,2.3927,2.3988,2.406,2.4105,2.4157,2.421,2.4247,2.431,2.4386,2.44,2.4478,2.4534,2.4627,2.4663,2.4723,2.4711,2.4733,2.4738,2.4742,2.4744,2.4613,2.4736,2.4735,2.4735,2.4735,2.4735,0,2.399,2.403,2.4095,2.4173,2.4229,2.4228,2.4289,2.4334,2.4403,2.4456,2.4514,2.4597,2.4665,2.471,2.4778,2.4817,2.4819,2.4833,2.483,2.4837,2.4752,2.4732,2.483,2.483,2.483,2.483,2.483,2.483,2.4057,2.4146,2.4168,2.4277,2.4315,2.4393,2.4427,2.4473,2.4515,2.4608,2.4665,2.4695,2.4743,2.4814,2.4875,2.4886,2.491,2.4924,2.4934,2.4854,2.4844,2.4834,2.4815,2.4929,2.493,2.5015,2.5016,2.5016]}]]